Regional Weather Roundup
Issued by NWS Cleveland, OH

Home | Current Version | Previous Version | Graphics & Text | Print | Product List | Glossary On
Versions: 1 2 3 4 5 6 7 8 9 10 11 12 13 14 15 16 17 18 19 20 21 22 23 24 25 26 27 28 29 30 31 32 33 34 35 36 37 38 39 40 41 42 43 44 45 46 47 48 49 50
000
ASUS41 KCLE 300402
RWRCLE
OHIO REGIONAL WEATHER ROUNDUP
NATIONAL WEATHER SERVICE CLEVELAND, OH
1200 AM EDT TUE AUG 30 2016

NOTE: "FAIR" INDICATES FEW OR NO CLOUDS BELOW 12,000 FEET WITH NO
SIGNIFICANT WEATHER AND/OR OBSTRUCTIONS TO VISIBILITY.

OHZ001>008-015>018-024>027-034-035-043-044-300500-
   NORTHWEST OHIO

CITY           SKY/WX    TMP DP  RH WIND       PRES   REMARKS
DEFIANCE       PTCLDY    70  64  81 E5        30.20F
FINDLAY        CLEAR     68  61  78 E6        30.20S
TOLEDO EXPRESS CLEAR     64  64 100 CALM      30.20S
TOLEDO EXEC    CLEAR     68  67  96 CALM      30.21S
LIMA           CLEAR     67  65  93 E7        30.21S
$$

OHZ009>014-019>023-028>033-038-089-300500-
   NORTHEAST OHIO

CITY           SKY/WX    TMP DP  RH WIND       PRES   REMARKS
CLE-HOPKINS    PTCLDY    70  57  63 S3        30.23F
CLE-LAKEFRONT  CLEAR     72  58  61 CALM      30.20F
CUY CO. ARPT   NOT AVBL
LORAIN-ELYRIA  CLEAR     60  58  92 CALM      30.22F
ASHTABULA      CLEAR     58  58 100 E3        30.23F FOG
AKRON-CANTON   CLEAR     66  56  70 NE6       30.23S
WOOSTER        CLEAR     64  59  83 NE3       30.23F
MANSFIELD      CLEAR     67  59  75 NE5       30.23S
YOUNGSTOWN     CLEAR     63  57  81 NE6       30.22F
$$

OHZ042-051>053-060>062-070>072-077>081-300500-
  SOUTHWEST OHIO

CITY           SKY/WX    TMP DP  RH WIND       PRES   REMARKS
CINC-COVINGTON CLEAR     78  71  79 E7        30.17S
CINC-LUNKEN    CLEAR     71  71 100 CALM      30.17R FOG
HAMILTON       CLEAR     72  69  90 CALM      30.18R
DAYTON         CLEAR     72  68  87 E6        30.21R
WRIGHT-PAT AFB CLEAR     73  69  86 NE5       30.18S
DAYTON GENERAL CLEAR     75  67  76 E6        30.18S
WILMINGTON     CLEAR     71  68  90 NE5       30.19S
$$

OHZ036-037-039>041-045>050-054>059-063>069-073>076-082>088-300500-
  CENTRAL AND SOUTHEAST OHIO

CITY           SKY/WX    TMP DP  RH WIND       PRES   REMARKS
COLUMBUS       CLEAR     72  63  73 NE8       30.18F
OSU AIRPORT    CLEAR     71  66  84 NE6       30.19F
BOLTON FIELD   CLEAR     70  67  89 NE7       30.19F
RICKENBACK AFB CLEAR     72  67  84 NE7       30.18S
NEWARK         CLEAR     71  64  78 N3        30.19S
MARION         CLEAR     67  62  84 NE3       30.22S
LANCASTER      CLEAR     68  67  96 CALM      30.18F
ZANESVILLE     CLEAR     69  65  86 CALM      30.19S
NEW PHILLY     CLEAR     66  61  84 CALM      30.22S
$$




USA.gov is the U.S. government's official web portal to all federal, state and local government web resources and services.